Fitchburg, MA

8:43 PM EDT on October 22, 2019 (GMT -0400)
Fitchburg Municipal

Weather History for KFIT - September, 2019

Change the Weather History Date:

Saturday, September 21, 2019

  Actual Average (KORH) Record (KORH)
Temperature  
Mean Temperature 70 °F -  
Max Temperature 84 °F 66 °F 85 °F (1965)
Min Temperature 55 °F 50 °F 32 °F (1929)
Cooling Degree Days 4    
Growing Degree Days 20 (Base 50)    
Moisture  
Dew Point 55 °F    
Average Humidity 64    
Maximum Humidity 93    
Minimum Humidity 40    
Precipitation  
Precipitation 0.00 in - - ()
Sea Level Pressure  
Sea Level Pressure 30.17 in    
Wind  
Wind Speed 3 mph (WNW)    
Max Wind Speed 9 mph    
Max Gust Speed -    
Visibility 10 miles    
Events      
Averages and records for this station are not official NWS values.
T = Trace of Precipitation, MM = Missing Value Source: NWS Daily Summary

Daily Weather History Graph

Daily Weather History Graph

Search for Another Location

Airport or City:

Astronomy

Sep. 21, 2019 Rise Set
Actual Time 6:33 AM EDT 6:46 PM EDT
Civil Twilight 6:04 AM EDT 7:14 PM EDT
Nautical Twilight 5:31 AM EDT 7:47 PM EDT
Astronomical Twilight 4:57 AM EDT 8:21 PM EDT
Moon 11:13 PM EDT (9/21) 1:44 PM EDT (9/21)
Length of Visible Light 13h 09m
Length of Day
12h 13m
Waning Gibbous, 55% of the Moon is Illuminated
Sep 21
Waning Gibbous
Sep 21
Last Quarter
Sep 28
New
Oct 5
First Quarter
Oct 13
Full

Hourly Weather History & Observations

Time (EDT) Temp. Heat Index Dew Point Humidity Pressure Visibility Wind Dir Wind Speed Gust Speed Precip Events Conditions
12:52 AM 57.9 °F - 48.0 °F 70% 30.15 in 10.0 mi NNW 5.8 mph - N/A   Clear
1:52 AM 59.0 °F - 48.9 °F 69% 30.17 in 10.0 mi NNW 6.9 mph - N/A   Clear
2:52 AM 55.0 °F - 48.0 °F 77% 30.17 in 10.0 mi NNW 4.6 mph - N/A   Clear
3:52 AM 55.9 °F - 48.9 °F 77% 30.16 in 10.0 mi Calm Calm - N/A   Clear
4:52 AM 55.9 °F - 48.9 °F 77% 30.17 in 10.0 mi Calm Calm - N/A   Clear
5:52 AM 57.0 °F - 50.0 °F 77% 30.17 in 10.0 mi Calm Calm - N/A   Clear
6:52 AM 55.0 °F - 50.0 °F 83% 30.19 in 10.0 mi Calm Calm - N/A   Clear
7:52 AM 60.1 °F - 52.0 °F 75% 30.21 in 10.0 mi Calm Calm - N/A   Clear
8:52 AM 68.0 °F - 53.1 °F 59% 30.22 in 10.0 mi Calm Calm - N/A   Clear
9:52 AM 73.9 °F - 55.0 °F 52% 30.22 in 10.0 mi Calm Calm - N/A   Clear
10:52 AM 77.0 °F - 57.0 °F 50% 30.22 in 10.0 mi Variable 3.5 mph - N/A   Clear
11:52 AM 81.0 °F 81.1 °F 57.9 °F 45% 30.20 in 10.0 mi Calm Calm - N/A   Clear
12:52 PM 84.0 °F 83.8 °F 59.0 °F 43% 30.18 in 10.0 mi Variable 4.6 mph - N/A   Clear
1:52 PM 82.9 °F 82.6 °F 57.9 °F 42% 30.16 in 10.0 mi ESE 5.8 mph - N/A   Clear
2:52 PM 84.9 °F 84.2 °F 57.9 °F 40% 30.15 in 10.0 mi WNW 5.8 mph - N/A   Clear
3:52 PM 84.0 °F 83.8 °F 59.0 °F 43% 30.14 in 10.0 mi Variable 3.5 mph - N/A   Scattered Clouds
4:52 PM 84.0 °F 83.8 °F 59.0 °F 43% 30.14 in 10.0 mi South 9.2 mph - N/A   Scattered Clouds
5:52 PM 82.0 °F 82.1 °F 59.0 °F 45% 30.15 in 10.0 mi SSW 6.9 mph - N/A   Clear
6:52 PM 77.0 °F - 60.1 °F 56% 30.15 in 10.0 mi SW 4.6 mph - N/A   Clear
7:52 PM 69.1 °F - 60.1 °F 73% 30.15 in 10.0 mi NNW 3.5 mph - N/A   Clear
8:52 PM 66.9 °F - 60.1 °F 79% 30.17 in 10.0 mi Calm Calm - N/A   Clear
9:52 PM 66.0 °F - 59.0 °F 78% 30.17 in 10.0 mi Calm Calm - N/A   Clear
10:52 PM 64.0 °F - 59.0 °F 84% 30.18 in 10.0 mi Calm Calm - N/A   Clear
11:52 PM 60.1 °F - 57.9 °F 93% 30.18 in 10.0 mi Calm Calm - N/A   Clear